星链-31191 (STARLINK-31191 )

导读 | 豆包AI

STARLINK-31191是美国SpaceX星链(Starlink)项目中的一颗低轨通信卫星,于北京时间2024年1月15日发射入轨。它运行在近地轨道,轨道倾角约43°,轨道高度维持在482至484公里之间,每日绕地球运行约15.28圈。作为星链星座的组成部分,它旨在为全球提供高速低延迟的卫星互联网服务,目前已进入预定轨道正常运行。

基本信息
目录编号:
58800
目录名称:
STARLINK-31191
国际标识:
2024-012P
轨道中心:
EARTH
卫星名称:
星链-31191
卫星全名:
星链-31191 (STARLINK-31191 )
卫星状态:
在轨 (已飞行836 天)
发射日期:
2024-01-15 UTC
国别 :
美国 (US)
星等 :
--
轨道信息
数据来源 国际轨道数据
星历时间: 2026-04-30T16:58:09+0800
12小时前
查看轨道信息
半长轴: 6861.181km
偏心率: 0.0001385
轨道倾角: 43.001°
近地点辐角 250.357°
升交点赤经 233.084°
平近点角 109.713°
近地点: 482.093km
远地点: 483.995km
周期: 94.267分钟
每日圈数: 15.275819
详细信息
固有亮度:
5
最大亮度:
0.3
卫星平台:
Starlink v2.0 mini
覆盖范围:
全球
运营商:
太空探索技术公司
运营商所在国:
美国
制造商(研发单位):
太空探索技术公司
制造商所在国:
美国
使用方式:
暂无
卫星简介
星链(Starlink)计划是由太空探索技术公司(SpaceX)提出的一个巨型低轨卫星互联网星座项目,计划在2019年至2024年间在太空搭建由约1.2万颗卫星组成的“星链”网络,其中1584颗将部署在地球上空550千米处的近地轨道,并从2020年开始工作。该卫星仍在工作。
2D轨道图
3D轨道图
轨道高度分析图
轨道倾角分析图
轨道综合分析图
查看轨道综合分析图